Wind_Speed
8 7 8 8 7 7 8 7 7 8 7 7 8 8 9 9 9 8 7 8 7 8 8 8 8 8 8 9 9 10 10 11 11 11 11 12 13 12 13 13 13 13 13
8 8 8 7 7 7 6 7 7 7 7 7 7 8 8 8 7 8 8 8 8 8 8 8 8 9 9 9 9 9 9 10 11 11 12 13 13 13 12 13 13 14 15
8 8 7 7 6 6 6 6 6 6 6 7 7 7 8 8 8 8 8 8 8 8 9 9 9 9 9 9 9 9 9 9 10 11 11 12 12 14 14 14 14 15 15
8 8 7 7 7 7 7 7 6 6 6 6 6 6 6 7 8 7 8 8 8 9 9 9 10 10 10 10 10 9 10 10 10 11 11 12 12 13 14 14 14 15 15
8 8 7 7 7 7 7 7 6 7 7 7 6 6 6 6 7 7 8 8 8 9 9 9 10 10 10 10 10 10 10 11 11 11 11 12 12 13 14 14 14 14 14
8 7 7 7 6 6 6 6 6 6 7 7 6 6 6 6 6 7 8 8 9 9 9 9 9 9 9 9 9 10 11 11 11 11 11 12 12 13 13 13 14 14 15
6 6 6 6 6 6 6 6 6 6 6 6 5 6 6 7 7 7 8 8 7 7 8 8 8 8 8 8 9 10 10 10 11 11 11 12 13 13 13 13 14 14 15
5 5 5 5 5 5 5 5 5 5 5 5 5 5 5 6 7 7 8 7 7 7 7 7 7 7 8 9 9 9 9 10 11 11 12 12 13 13 13 14 14 15 15
5 4 4 4 4 5 4 4 5 5 5 4 5 5 5 6 6 7 7 6 6 7 7 7 8 8 8 8 9 9 10 11 11 12 12 12 12 13 14 14 15 15 16
4 3 4 3 4 4 4 5 5 4 4 5 5 5 6 6 6 6 6 6 6 7 8 8 9 9 9 9 9 9 10 11 12 12 13 12 12 13 14 15 16 16 17
3 4 4 3 3 3 4 4 4 4 4 5 5 5 6 7 6 6 6 6 6 7 7 8 8 9 9 9 10 10 11 11 11 12 12 13 14 14 15 16 16 17 17
3 4 3 3 3 4 4 4 4 4 5 5 5 6 7 7 7 7 7 7 8 8 8 8 9 9 9 10 10 10 11 11 12 13 13 13 14 15 16 17 17 17 18
3 3 3 4 4 4 4 4 4 5 5 6 6 6 7 7 8 8 8 8 9 8 8 8 9 10 10 10 11 12 12 13 13 14 14 15 16 17 17 18 18 19 19
4 4 4 5 5 5 5 5 5 5 5 5 6 6 7 8 8 8 8 9 9 9 9 9 9 10 10 11 12 12 13 13 14 15 16 16 17 18 18 19 19 19 19
5 5 5 4 5 5 5 5 5 5 5 6 6 7 7 7 8 9 9 9 9 10 10 10 10 10 10 11 12 13 14 14 15 16 16 17 18 19 19 19 19 19 20
5 5 5 5 5 5 6 6 6 6 7 7 7 7 8 8 8 9 10 10 10 10 10 10 11 11 12 12 13 14 14 15 15 16 17 18 18 19 19 19 20 20 21
5 5 6 6 6 6 7 7 7 6 7 7 7 8 8 8 9 9 9 9 9 9 10 11 12 12 13 13 13 14 14 15 16 17 18 19 19 20 20 20 21 21 22
6 6 7 6 6 6 7 7 7 7 7 7 8 8 8 9 9 9 9 10 10 11 11 12 13 13 13 14 14 15 15 16 18 18 19 20 21 21 22 22 23 23 23
7 7 7 7 7 6 6 6 6 7 7 7 8 8 9 9 10 10 10 11 11 12 13 14 14 14 14 15 16 16 17 18 19 20 21 21 22 23 24 24 24 24 24
8 7 7 8 8 7 7 8 8 8 8 8 9 9 10 10 11 11 11 11 12 13 14 15 15 16 16 17 18 19 19 20 21 22 23 23 24 24 25 25 25 25 26
8 7 8 8 8 8 8 9 10 9 9 10 11 11 12 12 12 12 12 12 13 14 15 16 17 18 18 19 21 21 21 22 23 23 24 25 25 25 25 26 26 27 27
8 8 8 8 9 9 9 10 10 11 11 12 12 13 13 13 13 13 13 14 15 16 16 17 18 19 20 21 22 23 23 23 24 25 25 25 26 26 26 27 27 28 29
9 9 9 10 10 10 10 11 11 12 13 13 14 14 14 14 14 14 15 16 17 18 18 19 20 21 21 22 23 24 24 25 25 26 26 26 27 28 28 29 29 30 31
10 11 11 11 11 11 12 12 13 14 14 14 14 15 15 16 16 17 17 18 18 19 20 20 21 22 22 23 24 25 25 26 26 27 28 28 28 29 29 30 31 32 33
12 12 12 12 13 13 13 13 14 14 14 15 16 16 17 17 18 19 20 20 20 21 22 23 23 24 25 26 26 26 27 27 28 28 29 29 29 30 31 32 32 33 34
13 14 14 15 14 14 15 15 15 15 16 16 17 17 18 18 19 20 21 21 22 23 24 25 25 26 27 27 28 28 28 29 29 29 29 30 30 32 32 33 33 33 34
Wind_Direction
286 286 286 281 274 268 263 259 261 260 257 253 257 256 254 249 248 247 254 260 261 263 264 266 265 269 268 271 272 268 267 267 267 267 269 267 267 269 269 267 263 262 264
283 283 286 284 276 270 267 262 260 261 254 256 259 259 254 254 251 250 254 259 264 268 267 266 265 266 267 268 266 268 271 271 269 271 270 267 267 268 272 272 271 269 270
282 284 287 286 278 274 269 261 258 260 256 256 258 260 257 252 250 249 254 260 264 271 273 268 263 266 267 263 264 268 271 273 272 272 270 268 269 271 273 275 276 274 274
283 281 283 285 281 273 264 257 260 262 259 255 260 265 263 260 252 253 261 265 269 273 275 272 266 266 268 268 267 270 272 272 272 274 272 271 274 276 276 277 278 278 277
279 277 276 278 279 274 265 262 264 270 265 260 264 266 267 266 255 259 265 268 269 273 276 274 268 270 270 270 270 271 272 274 275 276 276 278 278 279 278 276 276 280 281
279 272 271 275 278 278 273 267 267 267 267 265 262 263 264 265 267 266 266 269 271 276 280 279 268 270 274 274 273 275 276 277 278 278 277 279 280 282 283 283 282 283 283
281 284 282 278 281 281 279 273 267 268 272 266 267 265 262 264 269 268 268 268 273 283 285 281 274 269 273 274 276 278 279 277 278 280 281 281 282 284 285 286 285 284 283
289 294 291 278 279 278 277 273 269 273 274 273 272 271 269 268 265 261 261 267 276 280 281 280 275 274 273 276 278 278 280 280 280 282 284 283 285 288 288 288 288 288 287
297 291 291 279 275 273 271 269 273 276 274 273 270 272 275 266 264 262 265 269 274 274 276 276 279 279 276 279 278 276 281 283 283 285 288 287 288 289 290 290 289 289 289
298 298 305 294 277 273 273 272 268 270 268 271 272 272 272 269 264 261 270 271 276 278 280 279 279 279 279 280 280 280 283 286 284 286 288 289 289 291 291 291 290 290 290
299 308 305 298 278 274 277 272 264 261 262 265 271 277 280 275 272 276 278 278 278 282 282 282 282 283 284 284 283 284 282 288 289 290 290 292 293 293 293 293 294 293 292
305 311 295 289 283 276 278 278 271 264 267 265 271 280 284 276 275 281 286 288 288 288 287 287 285 287 288 287 287 288 287 289 291 291 294 296 296 295 294 294 294 294 294
304 304 295 287 292 287 281 279 275 275 279 277 277 282 286 286 285 282 286 289 291 292 290 290 291 290 292 292 294 297 295 292 294 294 295 297 297 298 297 296 294 294 294
287 292 296 289 294 291 280 277 281 287 285 283 283 284 285 289 287 285 289 291 290 289 288 289 289 289 289 293 296 297 299 295 294 297 298 299 300 301 300 298 297 296 296
289 294 298 291 294 292 282 278 282 284 284 282 282 284 287 290 288 287 289 291 290 289 289 289 289 287 288 292 297 298 299 299 300 300 301 302 303 302 301 301 300 298 298
287 290 295 295 288 285 285 278 278 278 280 284 282 284 288 292 293 290 290 290 290 290 290 291 293 293 294 297 301 302 301 302 304 304 302 302 303 303 303 302 301 300 298
286 285 288 290 284 281 286 286 282 281 283 286 286 288 291 292 294 292 289 290 292 294 294 295 295 295 297 300 300 302 301 302 303 303 302 301 302 302 301 302 301 300 299
281 283 282 284 288 287 288 289 285 284 288 291 291 292 294 294 296 294 291 290 292 295 296 298 298 298 300 301 301 301 301 301 301 301 301 302 302 302 303 302 302 300 298
284 284 277 283 287 294 294 291 292 290 293 294 294 295 296 296 298 297 294 292 292 293 295 297 299 300 301 301 300 299 299 299 300 301 302 304 304 303 303 302 301 299 298
284 282 281 285 288 292 294 293 295 291 291 294 296 294 296 298 297 297 296 295 294 293 293 295 297 299 300 301 301 300 300 300 300 301 302 302 303 303 302 301 301 300 300
285 283 287 286 285 287 288 292 295 294 292 294 295 294 295 296 297 298 297 297 297 298 298 297 298 300 300 301 302 301 301 301 301 302 302 302 302 302 301 302 302 300 300
282 281 283 286 287 286 285 289 291 293 292 293 295 294 293 296 297 296 297 298 299 299 301 302 302 301 301 302 302 302 302 302 302 302 302 302 302 302 301 302 302 301 300
277 280 281 283 287 288 287 288 291 292 292 293 295 296 294 294 295 295 297 298 298 300 302 303 303 303 302 302 302 302 302 302 303 303 303 304 304 305 304 303 302 301 300
274 278 281 282 285 287 287 288 289 290 291 293 294 296 295 294 295 297 297 297 299 300 301 302 303 303 304 303 302 302 303 304 304 304 304 304 304 304 304 304 303 302 301
275 276 279 283 285 285 286 287 288 289 290 292 294 295 295 296 296 298 298 298 299 300 301 301 301 302 302 302 302 301 302 302 303 302 302 303 304 304 304 303 303 303 303
275 277 280 282 284 285 287 286 285 288 290 292 294 296 297 298 298 298 298 299 299 299 299 300 300 300 300 301 301 301 301 301 301 301 301 302 303 303 304 304 303 303 303
Height
5855 5854 5854 5854 5854 5854 5854 5854 5855 5855 5856 5856 5857 5857 5858 5858 5859 5859 5860 5860 5861 5861 5862 5862 5863 5864 5864 5864 5865 5865 5865 5865 5866 5866 5867 5867 5868 5868 5869 5869 5869 5869 5870
5853 5852 5852 5852 5852 5853 5853 5853 5853 5853 5854 5855 5855 5856 5856 5857 5857 5858 5858 5859 5859 5860 5860 5861 5861 5862 5862 5862 5863 5863 5863 5863 5864 5864 5864 5865 5865 5866 5866 5866 5866 5866 5867
5851 5851 5851 5851 5851 5851 5851 5851 5852 5852 5852 5853 5853 5854 5855 5855 5856 5857 5857 5857 5858 5858 5859 5859 5859 5860 5860 5860 5861 5861 5861 5861 5861 5862 5862 5862 5862 5863 5863 5863 5863 5863 5863
5849 5849 5849 5849 5849 5849 5849 5850 5850 5850 5851 5851 5852 5853 5853 5854 5854 5855 5856 5856 5856 5857 5857 5857 5857 5857 5858 5858 5858 5859 5859 5859 5859 5859 5859 5859 5860 5860 5860 5860 5860 5860 5860
5847 5847 5847 5847 5848 5847 5848 5848 5848 5849 5849 5850 5850 5851 5852 5852 5853 5853 5854 5854 5855 5855 5854 5854 5854 5855 5856 5856 5856 5857 5857 5857 5857 5857 5857 5857 5857 5857 5857 5857 5857 5857 5857
5845 5846 5846 5846 5846 5846 5846 5847 5847 5848 5848 5848 5849 5850 5850 5851 5851 5852 5852 5852 5853 5853 5852 5851 5851 5852 5853 5854 5854 5855 5854 5854 5854 5854 5854 5854 5854 5854 5854 5854 5854 5854 5853
5844 5844 5844 5845 5845 5845 5845 5845 5846 5846 5847 5847 5847 5848 5849 5849 5850 5850 5850 5851 5850 5850 5849 5849 5848 5849 5851 5852 5852 5852 5852 5852 5852 5852 5851 5851 5851 5851 5851 5851 5850 5850 5850
5843 5843 5843 5843 5843 5844 5844 5844 5845 5845 5845 5846 5846 5847 5847 5848 5848 5848 5849 5849 5848 5848 5848 5847 5846 5847 5848 5849 5849 5849 5849 5849 5849 5849 5849 5848 5848 5848 5847 5847 5847 5847 5846
5842 5842 5842 5842 5842 5843 5843 5843 5844 5844 5844 5844 5845 5846 5846 5846 5847 5847 5847 5847 5847 5847 5847 5846 5846 5846 5847 5847 5847 5847 5847 5847 5846 5846 5846 5846 5845 5845 5844 5844 5843 5843 5842
5841 5841 5841 5841 5841 5842 5842 5842 5842 5843 5843 5843 5844 5844 5845 5845 5846 5846 5846 5845 5845 5846 5845 5845 5845 5845 5845 5845 5845 5845 5844 5844 5843 5843 5843 5842 5842 5841 5841 5840 5840 5839 5838
5840 5840 5840 5840 5840 5841 5841 5841 5841 5842 5842 5842 5843 5843 5844 5844 5844 5845 5844 5844 5844 5844 5843 5843 5843 5843 5843 5843 5842 5842 5842 5841 5841 5840 5840 5839 5839 5838 5837 5837 5836 5835 5834
5840 5840 5839 5839 5840 5840 5840 5840 5840 5841 5841 5841 5842 5842 5842 5843 5843 5843 5843 5843 5842 5842 5842 5842 5841 5841 5841 5841 5840 5840 5839 5839 5838 5838 5837 5836 5835 5834 5834 5833 5831 5830 5829
5839 5839 5839 5839 5839 5839 5839 5839 5839 5840 5840 5840 5840 5841 5841 5841 5841 5841 5841 5841 5841 5840 5840 5840 5840 5839 5839 5838 5838 5837 5837 5836 5835 5834 5834 5833 5832 5831 5829 5828 5827 5826 5825
5838 5838 5838 5838 5838 5838 5838 5838 5839 5839 5839 5839 5839 5839 5839 5839 5839 5839 5839 5839 5839 5839 5838 5838 5838 5837 5837 5836 5835 5834 5834 5833 5832 5831 5830 5829 5828 5826 5825 5823 5822 5821 5820
5837 5837 5837 5837 5837 5837 5837 5837 5838 5838 5838 5838 5838 5838 5838 5838 5837 5837 5837 5837 5837 5837 5837 5836 5835 5835 5834 5833 5832 5831 5830 5829 5828 5827 5826 5824 5823 5822 5820 5819 5817 5816 5814
5836 5836 5836 5836 5836 5836 5836 5836 5836 5837 5837 5836 5836 5836 5836 5836 5836 5835 5835 5835 5834 5834 5834 5834 5833 5832 5831 5831 5830 5828 5827 5826 5825 5823 5822 5820 5819 5817 5815 5814 5812 5810 5809
5835 5835 5835 5835 5835 5835 5835 5835 5835 5835 5835 5835 5835 5834 5834 5834 5834 5833 5833 5832 5832 5832 5831 5831 5830 5829 5828 5827 5826 5825 5824 5822 5821 5819 5818 5816 5814 5812 5810 5809 5807 5805 5803
5834 5834 5834 5834 5834 5834 5834 5834 5833 5833 5833 5833 5833 5833 5832 5832 5831 5831 5830 5830 5829 5829 5829 5828 5827 5826 5825 5824 5823 5822 5820 5819 5817 5815 5813 5811 5809 5807 5805 5803 5801 5799 5797
5832 5832 5832 5832 5832 5832 5832 5832 5832 5832 5831 5831 5831 5831 5830 5830 5829 5828 5828 5827 5826 5826 5826 5825 5824 5823 5822 5820 5819 5818 5816 5814 5812 5810 5808 5806 5804 5802 5799 5797 5795 5792 5790
5830 5830 5830 5830 5830 5831 5830 5830 5830 5830 5829 5829 5829 5828 5828 5827 5826 5826 5825 5824 5823 5823 5822 5821 5820 5819 5818 5816 5815 5813 5811 5809 5807 5805 5803 5801 5798 5796 5793 5791 5788 5786 5783
5828 5828 5829 5829 5829 5829 5828 5828 5828 5828 5827 5827 5826 5826 5825 5824 5823 5822 5822 5821 5820 5819 5818 5817 5816 5815 5813 5812 5810 5808 5806 5804 5801 5799 5797 5794 5792 5789 5787 5784 5781 5779 5776
5826 5826 5826 5826 5827 5826 5826 5826 5826 5825 5825 5824 5823 5823 5822 5821 5820 5819 5818 5817 5816 5815 5814 5813 5811 5809 5808 5806 5804 5802 5800 5798 5796 5793 5791 5788 5785 5782 5780 5777 5774 5771 5768
5824 5824 5824 5824 5824 5824 5823 5823 5823 5822 5822 5821 5820 5819 5818 5817 5816 5815 5814 5813 5812 5811 5809 5808 5806 5804 5802 5800 5798 5796 5793 5791 5788 5786 5783 5781 5778 5775 5772 5769 5766 5763 5760
5821 5821 5821 5821 5821 5821 5820 5820 5819 5819 5818 5817 5817 5816 5815 5813 5812 5811 5810 5809 5807 5806 5804 5802 5800 5798 5796 5793 5791 5789 5786 5783 5781 5778 5775 5773 5770 5767 5764 5760 5757 5754 5750
5818 5818 5818 5818 5817 5817 5817 5816 5816 5815 5815 5814 5813 5812 5810 5809 5808 5807 5805 5804 5802 5800 5798 5796 5794 5792 5789 5787 5784 5781 5779 5776 5774 5771 5768 5765 5762 5759 5756 5752 5748 5745 5741
5814 5814 5814 5814 5813 5813 5813 5812 5812 5811 5810 5810 5809 5807 5806 5804 5803 5801 5800 5798 5796 5794 5792 5790 5787 5785 5782 5779 5776 5774 5771 5768 5765 5763 5759 5756 5753 5750 5747 5743 5739 5735 5731